Time,TemperatureF,DewpointF,PressureIn,WindDirection,WindDirectionDegrees,WindSpeedMPH,WindSpeedGustMPH,Humidity,HourlyPrecipIn,Conditions,Clouds,dailyrainin,SoftwareType,DateUTC
2013-02-03 00:00:00,27.1,13.1,30.03,WSW,251,3.0,3.0,55,0.00,,,0.00,Wunderground v.1.15,2013-02-03 05:00:00,
2013-02-03 00:05:00,27.0,13.4,30.03,West,278,4.0,4.0,56,0.00,,,0.00,Wunderground v.1.15,2013-02-03 05:05:00,
2013-02-03 00:10:00,27.0,13.4,30.03,WNW,290,3.0,3.0,56,0.00,,,0.00,Wunderground v.1.15,2013-02-03 05:10:00,
2013-02-03 00:20:00,26.9,14.1,30.02,WNW,284,3.0,3.0,58,0.00,,,0.00,Wunderground v.1.15,2013-02-03 05:20:00,
2013-02-03 00:30:00,26.8,14.0,30.02,WSW,254,2.0,2.0,58,0.00,,,0.00,Wunderground v.1.15,2013-02-03 05:30:00,
2013-02-03 00:40:00,26.6,14.6,30.02,West,265,3.0,3.0,60,0.00,,,0.00,Wunderground v.1.15,2013-02-03 05:40:00,
2013-02-03 00:50:00,26.5,14.9,30.02,WSW,254,2.0,3.0,61,0.00,,,0.00,Wunderground v.1.15,2013-02-03 05:50:00,
2013-02-03 01:00:00,26.3,15.0,30.02,WSW,248,2.0,3.0,62,0.00,,,0.00,Wunderground v.1.15,2013-02-03 06:00:00,
2013-02-03 01:10:00,26.2,15.3,30.01,WSW,252,2.0,3.0,63,0.00,,,0.00,Wunderground v.1.15,2013-02-03 06:10:00,
2013-02-03 01:20:00,26.0,15.5,30.01,West,265,3.0,3.0,64,0.00,,,0.00,Wunderground v.1.15,2013-02-03 06:20:00,
2013-02-03 01:25:00,25.9,16.1,30.01,WNW,297,3.0,3.0,66,0.00,,,0.00,Wunderground v.1.15,2013-02-03 06:25:00,
2013-02-03 01:30:00,25.8,16.0,30.01,West,275,2.0,4.0,66,0.00,,,0.00,Wunderground v.1.15,2013-02-03 06:30:00,
2013-02-03 01:35:00,25.7,16.3,30.01,West,281,3.0,4.0,67,0.00,,,0.00,Wunderground v.1.15,2013-02-03 06:35:00,
2013-02-03 01:45:00,25.5,16.7,30.01,West,265,2.0,3.0,69,0.00,,,0.00,Wunderground v.1.15,2013-02-03 06:45:00,
2013-02-03 01:50:00,25.4,17.3,30.01,West,266,1.0,1.0,71,0.00,,,0.00,Wunderground v.1.15,2013-02-03 06:50:00,
2013-02-03 02:00:00,25.2,17.8,30.01,WSW,251,1.0,1.0,73,0.00,,,0.00,Wunderground v.1.15,2013-02-03 07:00:00,
2013-02-03 02:05:00,25.0,17.9,30.01,WNW,286,2.0,2.0,74,0.00,,,0.00,Wunderground v.1.15,2013-02-03 07:05:00,
2013-02-03 02:15:00,24.7,18.2,30.00,WNW,286,1.0,2.0,76,0.00,,,0.00,Wunderground v.1.15,2013-02-03 07:15:00,
2013-02-03 02:20:00,24.6,18.4,30.00,WSW,256,1.0,1.0,77,0.00,,,0.00,Wunderground v.1.15,2013-02-03 07:20:00,
2013-02-03 02:30:00,24.5,18.9,29.99,West,269,1.0,1.0,79,0.00,,,0.00,Wunderground v.1.15,2013-02-03 07:30:00,
2013-02-03 02:40:00,24.4,18.8,29.98,West,275,1.0,1.0,79,0.00,,,0.00,Wunderground v.1.15,2013-02-03 07:40:00,
2013-02-03 02:50:00,24.5,18.9,29.98,NW,311,1.0,2.0,79,0.00,,,0.00,Wunderground v.1.15,2013-02-03 07:50:00,
2013-02-03 02:55:00,24.4,18.8,29.97,NW,323,1.0,2.0,79,0.00,,,0.00,Wunderground v.1.15,2013-02-03 07:55:00,
2013-02-03 03:05:00,24.3,19.0,29.97,North,351,1.0,3.0,80,0.00,,,0.00,Wunderground v.1.15,2013-02-03 08:05:00,
2013-02-03 03:10:00,24.3,19.0,29.96,NW,317,2.0,2.0,80,0.00,,,0.00,Wunderground v.1.15,2013-02-03 08:10:00,
2013-02-03 03:20:00,24.2,19.2,29.96,NW,310,2.0,2.0,81,0.00,,,0.00,Wunderground v.1.15,2013-02-03 08:20:00,
2013-02-03 03:25:00,24.2,19.2,29.97,NNW,327,2.0,2.0,81,0.00,,,0.00,Wunderground v.1.15,2013-02-03 08:25:00,
2013-02-03 03:35:00,24.1,19.4,29.97,West,263,1.0,2.0,82,0.00,,,0.00,Wunderground v.1.15,2013-02-03 08:35:00,
2013-02-03 03:45:00,24.1,19.4,29.97,WNW,295,1.0,1.0,82,0.00,,,0.00,Wunderground v.1.15,2013-02-03 08:45:00,
2013-02-03 03:50:00,24.1,19.1,29.97,North,5,1.0,1.0,81,0.00,,,0.00,Wunderground v.1.15,2013-02-03 08:50:00,
2013-02-03 04:00:00,24.1,19.1,29.97,NNW,327,0.0,0.0,81,0.00,,,0.00,Wunderground v.1.15,2013-02-03 09:00:00,
2013-02-03 04:10:00,24.0,19.0,29.97,NNW,327,0.0,0.0,81,0.00,,,0.00,Wunderground v.1.15,2013-02-03 09:10:00,
2013-02-03 04:20:00,24.0,19.0,29.97,NNW,327,0.0,1.0,81,0.00,,,0.00,Wunderground v.1.15,2013-02-03 09:20:00,
2013-02-03 04:30:00,24.0,19.0,29.97,NNW,348,0.0,0.0,81,0.00,,,0.00,Wunderground v.1.15,2013-02-03 09:30:00,
2013-02-03 04:35:00,24.0,19.0,29.97,NNW,333,1.0,1.0,81,0.00,,,0.00,Wunderground v.1.15,2013-02-03 09:35:00,
2013-02-03 04:45:00,23.9,19.2,29.97,NW,316,1.0,1.0,82,0.00,,,0.00,Wunderground v.1.15,2013-02-03 09:45:00,
2013-02-03 04:50:00,23.8,19.1,29.97,ENE,63,1.0,1.0,82,0.00,,,0.00,Wunderground v.1.15,2013-02-03 09:50:00,
2013-02-03 04:55:00,23.8,19.1,29.97,ENE,63,1.0,1.0,82,0.00,,,0.00,Wunderground v.1.15,2013-02-03 09:55:00,
2013-02-03 05:05:00,23.8,19.4,29.97,ENE,63,1.0,1.0,83,0.00,,,0.00,Wunderground v.1.15,2013-02-03 10:05:00,
2013-02-03 05:15:00,23.6,19.5,29.97,NE,56,1.0,1.0,84,0.00,,,0.00,Wunderground v.1.15,2013-02-03 10:15:00,
2013-02-03 05:25:00,23.7,19.6,29.96,ENE,75,1.0,1.0,84,0.00,,,0.00,Wunderground v.1.15,2013-02-03 10:25:00,
2013-02-03 05:35:00,23.7,19.6,29.97,ENE,72,1.0,2.0,84,0.00,,,0.00,Wunderground v.1.15,2013-02-03 10:35:00,
2013-02-03 05:40:00,23.7,19.6,29.96,ENE,77,1.0,1.0,84,0.00,,,0.00,Wunderground v.1.15,2013-02-03 10:40:00,
2013-02-03 05:50:00,23.6,19.5,29.96,ENE,69,0.0,1.0,84,0.00,,,0.00,Wunderground v.1.15,2013-02-03 10:50:00,
2013-02-03 06:00:00,23.6,19.5,29.96,ESE,117,0.0,0.0,84,0.00,,,0.00,Wunderground v.1.15,2013-02-03 11:00:00,
2013-02-03 06:10:00,23.6,19.5,29.95,East,86,0.0,1.0,84,0.00,,,0.00,Wunderground v.1.15,2013-02-03 11:10:00,
2013-02-03 06:20:00,23.5,19.7,29.95,East,86,0.0,2.0,85,0.00,,,0.00,Wunderground v.1.15,2013-02-03 11:20:00,
2013-02-03 06:30:00,23.3,19.5,29.95,ENE,64,1.0,1.0,85,0.00,,,0.00,Wunderground v.1.15,2013-02-03 11:30:00,
2013-02-03 06:35:00,23.3,19.5,29.94,NNE,18,1.0,1.0,85,0.00,,,0.00,Wunderground v.1.15,2013-02-03 11:35:00,
2013-02-03 06:45:00,23.1,19.5,29.93,ENE,57,1.0,2.0,86,0.00,,,0.00,Wunderground v.1.15,2013-02-03 11:45:00,
2013-02-03 06:50:00,23.0,19.4,29.93,ENE,63,1.0,1.0,86,0.00,,,0.00,Wunderground v.1.15,2013-02-03 11:50:00,
2013-02-03 07:00:00,22.9,19.3,29.93,ENE,68,1.0,1.0,86,0.00,,,0.00,Wunderground v.1.15,2013-02-03 12:00:00,
2013-02-03 07:05:00,22.9,19.3,29.93,ENE,68,1.0,1.0,86,0.00,,,0.00,Wunderground v.1.15,2013-02-03 12:05:00,
2013-02-03 07:10:00,22.9,19.3,29.93,ENE,68,0.0,0.0,86,0.00,,,0.00,Wunderground v.1.15,2013-02-03 12:10:00,
2013-02-03 07:15:00,22.8,19.5,29.94,ENE,68,0.0,0.0,87,0.00,,,0.00,Wunderground v.1.15,2013-02-03 12:15:00,
2013-02-03 07:25:00,22.8,19.5,29.94,NW,324,0.0,1.0,87,0.00,,,0.00,Wunderground v.1.15,2013-02-03 12:25:00,
2013-02-03 07:35:00,22.9,19.6,29.94,NNW,333,0.0,0.0,87,0.00,,,0.00,Wunderground v.1.15,2013-02-03 12:35:00,
2013-02-03 07:45:00,22.9,19.6,29.94,North,355,0.0,0.0,87,0.00,,,0.00,Wunderground v.1.15,2013-02-03 12:45:00,
2013-02-03 07:50:00,22.9,19.6,29.94,NW,319,0.0,1.0,87,0.00,,,0.00,Wunderground v.1.15,2013-02-03 12:50:00,
2013-02-03 08:00:00,23.0,19.7,29.95,NW,323,1.0,1.0,87,0.00,,,0.00,Wunderground v.1.15,2013-02-03 13:00:00,
2013-02-03 08:05:00,23.0,19.7,29.95,WNW,300,2.0,2.0,87,0.00,,,0.00,Wunderground v.1.15,2013-02-03 13:05:00,
2013-02-03 08:10:00,23.1,19.8,29.95,WNW,302,1.0,1.0,87,0.00,,,0.00,Wunderground v.1.15,2013-02-03 13:10:00,
2013-02-03 08:20:00,23.5,20.2,29.95,NNW,340,0.0,0.0,87,0.00,,,0.00,Wunderground v.1.15,2013-02-03 13:20:00,
2013-02-03 08:30:00,23.5,19.9,29.95,NNW,342,0.0,2.0,86,0.00,,,0.00,Wunderground v.1.15,2013-02-03 13:30:00,
2013-02-03 08:35:00,23.6,20.0,29.95,NNW,342,1.0,2.0,86,0.00,,,0.00,Wunderground v.1.15,2013-02-03 13:35:00,
2013-02-03 08:45:00,23.8,20.2,29.95,NW,311,1.0,1.0,86,0.00,,,0.00,Wunderground v.1.15,2013-02-03 13:45:00,
2013-02-03 08:55:00,23.9,20.0,29.94,NW,313,1.0,5.0,85,0.00,,,0.00,Wunderground v.1.15,2013-02-03 13:55:00,
2013-02-03 09:05:00,24.0,19.9,29.94,NW,326,1.0,2.0,84,0.00,,,0.00,Wunderground v.1.15,2013-02-03 14:05:00,
2013-02-03 09:15:00,24.1,20.0,29.94,NNE,28,1.0,2.0,84,0.00,,,0.00,Wunderground v.1.15,2013-02-03 14:15:00,
2013-02-03 09:20:00,24.1,20.0,29.94,NW,321,2.0,2.0,84,0.00,,,0.00,Wunderground v.1.15,2013-02-03 14:20:00,
2013-02-03 09:30:00,24.5,20.4,29.93,WNW,300,1.0,1.0,84,0.00,,,0.00,Wunderground v.1.15,2013-02-03 14:30:00,
2013-02-03 09:35:00,24.6,20.5,29.93,WNW,300,1.0,1.0,84,0.00,,,0.00,Wunderground v.1.15,2013-02-03 14:35:00,
2013-02-03 09:45:00,24.6,20.2,29.93,East,83,1.0,1.0,83,0.00,,,0.00,Wunderground v.1.15,2013-02-03 14:45:00,
2013-02-03 09:55:00,25.0,20.8,29.92,West,265,0.0,1.0,84,0.00,,,0.00,Wunderground v.1.15,2013-02-03 14:55:00,
2013-02-03 10:05:00,25.2,20.8,29.92,NNW,329,1.0,1.0,83,0.00,,,0.00,Wunderground v.1.15,2013-02-03 15:05:00,
2013-02-03 10:10:00,25.3,20.9,29.91,NNW,329,1.0,1.0,83,0.00,,,0.00,Wunderground v.1.15,2013-02-03 15:10:00,
2013-02-03 10:15:00,25.5,21.1,29.91,NNW,329,1.0,1.0,83,0.00,,,0.00,Wunderground v.1.15,2013-02-03 15:15:00,
2013-02-03 10:25:00,25.7,20.7,29.91,NE,44,1.0,1.0,81,0.00,,,0.00,Wunderground v.1.15,2013-02-03 15:25:00,
2013-02-03 10:30:00,26.1,21.4,29.90,WNW,301,1.0,1.0,82,0.00,,,0.00,Wunderground v.1.15,2013-02-03 15:30:00,
2013-02-03 10:40:00,26.5,21.7,29.90,NE,42,1.0,1.0,82,0.00,,,0.00,Wunderground v.1.15,2013-02-03 15:40:00,
2013-02-03 10:50:00,26.5,21.7,29.89,North,355,1.0,3.0,82,0.00,,,0.00,Wunderground v.1.15,2013-02-03 15:50:00,
2013-02-03 11:00:00,26.4,21.4,29.89,NE,46,1.0,1.0,81,0.00,,,0.00,Wunderground v.1.15,2013-02-03 16:00:00,
2013-02-03 11:05:00,26.5,21.5,29.89,NW,313,1.0,1.0,81,0.00,,,0.00,Wunderground v.1.15,2013-02-03 16:05:00,
2013-02-03 11:15:00,26.5,21.5,29.88,North,9,2.0,3.0,81,0.00,,,0.00,Wunderground v.1.15,2013-02-03 16:15:00,
2013-02-03 11:20:00,26.6,21.6,29.88,NW,322,2.0,2.0,81,0.00,,,0.00,Wunderground v.1.15,2013-02-03 16:20:00,
2013-02-03 11:30:00,26.6,21.3,29.87,NNW,331,2.0,4.0,80,0.00,,,0.00,Wunderground v.1.15,2013-02-03 16:30:00,
2013-02-03 11:35:00,26.6,21.3,29.86,East,98,2.0,4.0,80,0.00,,,0.00,Wunderground v.1.15,2013-02-03 16:35:00,
2013-02-03 11:45:00,26.8,21.2,29.86,North,5,2.0,2.0,79,0.00,,,0.00,Wunderground v.1.15,2013-02-03 16:45:00,
2013-02-03 11:50:00,26.9,21.6,29.85,NW,307,2.0,2.0,80,0.00,,,0.00,Wunderground v.1.15,2013-02-03 16:50:00,
2013-02-03 12:00:00,27.1,21.5,29.84,WNW,296,2.0,3.0,79,0.00,,,0.00,Wunderground v.1.15,2013-02-03 17:00:00,
2013-02-03 12:10:00,27.2,21.2,29.84,NW,313,3.0,6.0,78,0.00,,,0.00,Wunderground v.1.15,2013-02-03 17:10:00,
2013-02-03 12:20:00,27.2,21.5,29.83,NNW,342,3.0,3.0,79,0.00,,,0.00,Wunderground v.1.15,2013-02-03 17:20:00,
2013-02-03 12:30:00,27.4,21.7,29.82,NNE,25,2.0,2.0,79,0.00,,,0.00,Wunderground v.1.15,2013-02-03 17:30:00,
2013-02-03 12:40:00,27.2,21.5,29.82,WNW,284,2.0,2.0,79,0.00,,,0.00,Wunderground v.1.15,2013-02-03 17:40:00,
2013-02-03 12:45:00,27.2,21.5,29.82,North,5,2.0,2.0,79,0.00,,,0.00,Wunderground v.1.15,2013-02-03 17:45:00,
2013-02-03 12:50:00,27.2,21.8,29.81,NE,50,2.0,2.0,80,0.00,,,0.00,Wunderground v.1.15,2013-02-03 17:50:00,
2013-02-03 13:00:00,26.9,21.6,29.81,NW,324,3.0,4.0,80,0.00,,,0.00,Wunderground v.1.15,2013-02-03 18:00:00,
2013-02-03 13:05:00,26.6,21.0,29.81,NNW,333,3.0,4.0,79,0.00,,,0.00,Wunderground v.1.15,2013-02-03 18:05:00,
2013-02-03 13:15:00,26.6,21.3,29.81,NNW,344,2.0,3.0,80,0.00,,,0.00,Wunderground v.1.15,2013-02-03 18:15:00,
2013-02-03 13:20:00,26.6,21.6,29.80,NE,55,2.0,2.0,81,0.00,,,0.00,Wunderground v.1.15,2013-02-03 18:20:00,
2013-02-03 13:25:00,26.6,21.6,29.80,ESE,119,1.0,2.0,81,0.00,,,0.00,Wunderground v.1.15,2013-02-03 18:25:00,
2013-02-03 13:35:00,26.7,21.9,29.80,North,360,1.0,1.0,82,0.00,,,0.00,Wunderground v.1.15,2013-02-03 18:35:00,
2013-02-03 13:45:00,26.7,21.9,29.80,NW,315,1.0,2.0,82,0.00,,,0.00,Wunderground v.1.15,2013-02-03 18:45:00,
2013-02-03 13:50:00,26.8,22.0,29.79,NW,321,1.0,1.0,82,0.00,,,0.00,Wunderground v.1.15,2013-02-03 18:50:00,
2013-02-03 13:55:00,26.8,22.0,29.79,NW,311,1.0,3.0,82,0.00,,,0.00,Wunderground v.1.15,2013-02-03 18:55:00,
2013-02-03 14:05:00,26.9,22.1,29.78,WNW,294,1.0,1.0,82,0.00,,,0.00,Wunderground v.1.15,2013-02-03 19:05:00,
2013-02-03 14:15:00,26.8,22.3,29.78,NNW,340,2.0,3.0,83,0.00,,,0.00,Wunderground v.1.15,2013-02-03 19:15:00,
2013-02-03 14:20:00,26.8,22.3,29.78,NW,321,2.0,2.0,83,0.00,,,0.00,Wunderground v.1.15,2013-02-03 19:20:00,
2013-02-03 14:30:00,26.9,22.7,29.78,NW,325,1.0,3.0,84,0.00,,,0.00,Wunderground v.1.15,2013-02-03 19:30:00,
2013-02-03 14:40:00,26.9,22.4,29.78,NNW,327,2.0,2.0,83,0.00,,,0.00,Wunderground v.1.15,2013-02-03 19:40:00,
2013-02-03 14:50:00,27.3,23.1,29.78,NNW,329,1.0,2.0,84,0.00,,,0.00,Wunderground v.1.15,2013-02-03 19:50:00,
2013-02-03 14:55:00,27.3,22.8,29.77,NNE,20,1.0,2.0,83,0.00,,,0.00,Wunderground v.1.15,2013-02-03 19:55:00,
2013-02-03 15:00:00,27.1,22.6,29.78,North,9,2.0,2.0,83,0.00,,,0.00,Wunderground v.1.15,2013-02-03 20:00:00,
2013-02-03 15:05:00,27.0,22.5,29.77,East,101,1.0,2.0,83,0.00,,,0.00,Wunderground v.1.15,2013-02-03 20:05:00,
2013-02-03 15:15:00,27.1,22.6,29.77,NNW,338,1.0,1.0,83,0.00,,,0.00,Wunderground v.1.15,2013-02-03 20:15:00,
2013-02-03 15:25:00,27.0,22.5,29.77,NE,53,2.0,4.0,83,0.00,,,0.00,Wunderground v.1.15,2013-02-03 20:25:00,
2013-02-03 15:35:00,27.1,22.6,29.77,NNW,348,1.0,2.0,83,0.00,,,0.00,Wunderground v.1.15,2013-02-03 20:35:00,
2013-02-03 15:45:00,26.9,22.1,29.76,NW,311,2.0,2.0,82,0.00,,,0.00,Wunderground v.1.15,2013-02-03 20:45:00,
2013-02-03 15:55:00,26.8,22.3,29.76,East,79,1.0,2.0,83,0.00,,,0.00,Wunderground v.1.15,2013-02-03 20:55:00,
2013-02-03 16:00:00,26.7,22.2,29.76,North,349,1.0,1.0,83,0.00,,,0.00,Wunderground v.1.15,2013-02-03 21:00:00,
2013-02-03 16:10:00,26.7,22.5,29.76,WNW,300,1.0,4.0,84,0.00,,,0.00,Wunderground v.1.15,2013-02-03 21:10:00,
2013-02-03 16:20:00,26.6,22.4,29.75,North,350,2.0,3.0,84,0.00,,,0.00,Wunderground v.1.15,2013-02-03 21:20:00,
2013-02-03 16:30:00,26.4,22.2,29.75,NNW,335,2.0,4.0,84,0.00,,,0.00,Wunderground v.1.15,2013-02-03 21:30:00,
2013-02-03 16:35:00,26.4,22.5,29.75,NNW,347,2.0,4.0,85,0.00,,,0.00,Wunderground v.1.15,2013-02-03 21:35:00,
2013-02-03 16:40:00,26.3,22.1,29.75,WNW,298,3.0,4.0,84,0.00,,,0.00,Wunderground v.1.15,2013-02-03 21:40:00,
2013-02-03 16:50:00,26.2,22.3,29.75,NNE,19,1.0,3.0,85,0.00,,,0.00,Wunderground v.1.15,2013-02-03 21:50:00,
2013-02-03 16:55:00,26.3,22.7,29.75,NW,320,1.0,3.0,86,0.00,,,0.00,Wunderground v.1.15,2013-02-03 21:55:00,
2013-02-03 17:05:00,26.1,22.2,29.74,WNW,301,2.0,2.0,85,0.00,,,0.00,Wunderground v.1.15,2013-02-03 22:05:00,
2013-02-03 17:15:00,26.1,22.5,29.74,North,355,2.0,2.0,86,0.00,,,0.00,Wunderground v.1.15,2013-02-03 22:15:00,
2013-02-03 17:20:00,26.1,22.5,29.74,NW,311,2.0,4.0,86,0.00,,,0.00,Wunderground v.1.15,2013-02-03 22:20:00,
2013-02-03 17:25:00,26.0,22.4,29.74,ESE,112,2.0,4.0,86,0.00,,,0.00,Wunderground v.1.15,2013-02-03 22:25:00,
2013-02-03 17:35:00,26.0,22.4,29.74,North,355,2.0,2.0,86,0.00,,,0.00,Wunderground v.1.15,2013-02-03 22:35:00,
2013-02-03 17:45:00,26.1,22.5,29.74,West,263,2.0,2.0,86,0.00,,,0.00,Wunderground v.1.15,2013-02-03 22:45:00,
2013-02-03 17:50:00,26.1,22.8,29.74,NW,325,2.0,2.0,87,0.00,,,0.00,Wunderground v.1.15,2013-02-03 22:50:00,
2013-02-03 17:55:00,26.1,22.8,29.75,NE,38,1.0,2.0,87,0.00,,,0.00,Wunderground v.1.15,2013-02-03 22:55:00,
2013-02-03 18:05:00,26.1,22.8,29.75,NNW,346,1.0,2.0,87,0.00,,,0.00,Wunderground v.1.15,2013-02-03 23:05:00,
2013-02-03 18:15:00,26.0,22.7,29.75,NNW,345,1.0,1.0,87,0.00,,,0.00,Wunderground v.1.15,2013-02-03 23:15:00,
2013-02-03 18:20:00,26.0,22.7,29.75,NNW,345,1.0,1.0,87,0.00,,,0.00,Wunderground v.1.15,2013-02-03 23:20:00,
2013-02-03 18:30:00,26.0,22.9,29.75,NNE,27,0.0,1.0,88,0.00,,,0.00,Wunderground v.1.15,2013-02-03 23:30:00,
2013-02-03 18:35:00,26.0,22.9,29.75,NE,46,1.0,2.0,88,0.00,,,0.00,Wunderground v.1.15,2013-02-03 23:35:00,
2013-02-03 18:45:00,25.9,22.6,29.75,ENE,67,1.0,1.0,87,0.00,,,0.00,Wunderground v.1.15,2013-02-03 23:45:00,
2013-02-03 18:50:00,25.9,22.8,29.75,NE,42,1.0,1.0,88,0.00,,,0.00,Wunderground v.1.15,2013-02-03 23:50:00,
2013-02-03 19:00:00,26.0,22.9,29.76,NE,43,0.0,0.0,88,0.00,,,0.00,Wunderground v.1.15,2013-02-04 00:00:00,
2013-02-03 19:05:00,26.0,22.9,29.76,NE,44,1.0,1.0,88,0.00,,,0.00,Wunderground v.1.15,2013-02-04 00:05:00,
2013-02-03 19:10:00,26.0,22.9,29.76,ESE,119,0.0,3.0,88,0.00,,,0.00,Wunderground v.1.15,2013-02-04 00:10:00,
2013-02-03 19:15:00,26.0,22.9,29.76,ESE,113,1.0,3.0,88,0.00,,,0.00,Wunderground v.1.15,2013-02-04 00:15:00,
2013-02-03 19:25:00,26.0,22.7,29.76,East,92,1.0,2.0,87,0.00,,,0.00,Wunderground v.1.15,2013-02-04 00:25:00,
2013-02-03 19:30:00,26.0,22.7,29.76,NE,39,1.0,1.0,87,0.00,,,0.00,Wunderground v.1.15,2013-02-04 00:30:00,
2013-02-03 19:35:00,25.9,22.6,29.76,NE,51,1.0,1.0,87,0.00,,,0.00,Wunderground v.1.15,2013-02-04 00:35:00,
2013-02-03 19:45:00,25.8,22.5,29.75,ENE,58,1.0,3.0,87,0.00,,,0.00,Wunderground v.1.15,2013-02-04 00:45:00,
2013-02-03 19:50:00,25.8,22.5,29.75,ENE,74,1.0,1.0,87,0.00,,,0.00,Wunderground v.1.15,2013-02-04 00:50:00,
2013-02-03 20:00:00,25.6,22.3,29.75,ENE,61,1.0,1.0,87,0.00,,,0.00,Wunderground v.1.15,2013-02-04 01:00:00,
2013-02-03 20:05:00,25.6,22.3,29.74,NE,50,1.0,1.0,87,0.00,,,0.00,Wunderground v.1.15,2013-02-04 01:05:00,
2013-02-03 20:10:00,25.6,22.3,29.74,NW,318,1.0,1.0,87,0.00,,,0.00,Wunderground v.1.15,2013-02-04 01:10:00,
2013-02-03 20:20:00,25.6,22.3,29.74,NW,323,1.0,1.0,87,0.00,,,0.00,Wunderground v.1.15,2013-02-04 01:20:00,
2013-02-03 20:30:00,25.6,22.3,29.74,NNW,329,1.0,3.0,87,0.00,,,0.00,Wunderground v.1.15,2013-02-04 01:30:00,
2013-02-03 20:35:00,25.5,22.2,29.74,NNW,340,2.0,3.0,87,0.00,,,0.00,Wunderground v.1.15,2013-02-04 01:35:00,
2013-02-03 20:45:00,25.4,21.8,29.74,North,355,1.0,2.0,86,0.00,,,0.00,Wunderground v.1.15,2013-02-04 01:45:00,
2013-02-03 20:50:00,25.4,21.8,29.74,NNW,337,1.0,1.0,86,0.00,,,0.00,Wunderground v.1.15,2013-02-04 01:50:00,
2013-02-03 21:00:00,25.4,21.8,29.74,WNW,295,1.0,4.0,86,0.00,,,0.00,Wunderground v.1.15,2013-02-04 02:00:00,
2013-02-03 21:05:00,25.4,21.8,29.74,NW,309,1.0,4.0,86,0.00,,,0.00,Wunderground v.1.15,2013-02-04 02:05:00,
2013-02-03 21:15:00,25.3,21.7,29.73,WNW,299,1.0,4.0,86,0.00,,,0.00,Wunderground v.1.15,2013-02-04 02:15:00,
2013-02-03 21:20:00,25.3,21.7,29.73,West,263,1.0,1.0,86,0.00,,,0.00,Wunderground v.1.15,2013-02-04 02:20:00,
2013-02-03 21:30:00,25.3,21.4,29.72,NNW,348,2.0,2.0,85,0.00,,,0.00,Wunderground v.1.15,2013-02-04 02:30:00,
2013-02-03 21:35:00,25.3,21.4,29.72,NNW,348,2.0,2.0,85,0.00,,,0.00,Wunderground v.1.15,2013-02-04 02:35:00,
2013-02-03 21:45:00,25.2,21.3,29.72,NNW,341,1.0,2.0,85,0.00,,,0.00,Wunderground v.1.15,2013-02-04 02:45:00,
2013-02-03 21:50:00,25.2,21.3,29.72,NE,53,1.0,1.0,85,0.00,,,0.00,Wunderground v.1.15,2013-02-04 02:50:00,
2013-02-03 22:00:00,25.2,21.3,29.72,NW,318,2.0,2.0,85,0.00,,,0.00,Wunderground v.1.15,2013-02-04 03:00:00,
2013-02-03 22:05:00,25.2,21.3,29.72,NNW,338,2.0,2.0,85,0.00,,,0.00,Wunderground v.1.15,2013-02-04 03:05:00,
2013-02-03 22:15:00,25.2,21.3,29.72,WNW,289,1.0,3.0,85,0.00,,,0.00,Wunderground v.1.15,2013-02-04 03:15:00,
2013-02-03 22:20:00,25.2,21.3,29.72,NW,313,1.0,2.0,85,0.00,,,0.00,Wunderground v.1.15,2013-02-04 03:20:00,
2013-02-03 22:30:00,25.2,21.0,29.71,NNE,12,2.0,2.0,84,0.00,,,0.00,Wunderground v.1.15,2013-02-04 03:30:00,
2013-02-03 22:35:00,25.2,21.0,29.71,NW,315,2.0,2.0,84,0.00,,,0.00,Wunderground v.1.15,2013-02-04 03:35:00,
2013-02-03 22:40:00,25.2,21.0,29.71,North,5,2.0,2.0,84,0.00,,,0.00,Wunderground v.1.15,2013-02-04 03:40:00,
2013-02-03 22:50:00,25.2,21.0,29.71,North,9,1.0,2.0,84,0.00,,,0.00,Wunderground v.1.15,2013-02-04 03:50:00,
2013-02-03 22:55:00,25.2,21.0,29.71,NW,316,2.0,2.0,84,0.00,,,0.00,Wunderground v.1.15,2013-02-04 03:55:00,
2013-02-03 23:05:00,25.2,21.3,29.71,NW,326,1.0,1.0,85,0.00,,,0.00,Wunderground v.1.15,2013-02-04 04:05:00,
2013-02-03 23:15:00,25.2,21.6,29.71,West,279,1.0,1.0,86,0.00,,,0.00,Wunderground v.1.15,2013-02-04 04:15:00,
2013-02-03 23:20:00,25.2,21.6,29.71,West,279,1.0,1.0,86,0.00,,,0.00,Wunderground v.1.15,2013-02-04 04:20:00,
2013-02-03 23:25:00,25.2,21.6,29.72,NNW,346,1.0,1.0,86,0.00,,,0.00,Wunderground v.1.15,2013-02-04 04:25:00,
2013-02-03 23:35:00,25.2,21.9,29.71,West,276,1.0,1.0,87,0.00,,,0.00,Wunderground v.1.15,2013-02-04 04:35:00,
2013-02-03 23:40:00,25.1,21.8,29.71,West,276,0.0,0.0,87,0.00,,,0.00,Wunderground v.1.15,2013-02-04 04:40:00,
2013-02-03 23:50:00,25.1,21.8,29.71,West,276,1.0,1.0,87,0.00,,,0.00,Wunderground v.1.15,2013-02-04 04:50:00,